KUIPER-00070

导读 | 豆包AI

KUIPER-00070是美国亚马逊柯伊伯(已更名为Amazon Leo)低轨卫星互联网星座的组网卫星,于2025年7月16日发射入轨。该星座计划总计部署约7700颗卫星,运行在640公里近地轨道,旨在为全球提供高速卫星互联网服务,聚焦企业级客户,对标SpaceX星链,将在航空、海事等场景提供网络接入,目前亚马逊正加速推进星座部署,计划2026年启动正式商用。

Basic Information
目录编号:
64817
目录名称:
KUIPER-00070
国际标识:
2025-151B
轨道中心:
EARTH
卫星名称:
KUIPER-00070
卫星全名:
KUIPER-00070
卫星状态:
在轨 (已飞行241 天)
发射日期:
2025-07-16 UTC
国别 :
美国 (US)
星等 :
--
Orbit Information
数据来源 国际轨道数据
星历时间: 2026-03-14T04:09:54+0800
14小时前
查看轨道信息
半长轴: 7007.674km
偏心率: 0.0000744
轨道倾角: 51.901°
近地点辐角 76.774°
升交点赤经 287.210°
平近点角 283.330°
近地点: 629.015km
远地点: 630.059km
周期: 97.302分钟
每日圈数: 14.799328
Detailed Information
使用方式:
暂无
2D Orbit Map
3D Orbit Map
Orbit Altitude Analysis Chart
Orbit Inclination Analysis Chart
Orbit Comprehensive Analysis Chart
View Comprehensive Chart